Theta_e
306 306 306 307 307 307 307 306 306 306 306 305 306 307 307 306 306 307 307 307 307 307 307 308 308 307 308 307 308 308 305 306 309 310 309 308 306 305 305 304 304 304 308 316 315 312 315 318 319 318 316 316 315 313 314 315 316 315 315 314 312 313 313 313 315 316 316 317 317 317 316 316 325 335 339 340 341 344 344 346 346 346 347 346 349 350 350 349
306 305 306 306 306 306 306 306 306 306 306 306 306 306 307 306 306 306 306 307 307 307 307 307 307 307 307 307 308 306 305 308 310 309 309 307 304 304 303 303 304 303 308 316 316 314 316 316 319 317 315 315 315 314 314 315 316 314 315 314 313 315 315 315 316 317 317 317 316 317 316 315 319 326 332 335 338 340 341 344 346 347 347 347 350 350 349 349
305 305 305 305 306 306 306 306 306 306 306 306 306 306 306 306 306 306 307 306 306 307 307 307 307 307 307 307 307 305 306 309 308 309 309 306 305 304 303 303 303 303 307 315 315 315 316 315 318 316 314 314 314 314 313 315 315 314 316 315 315 315 315 315 314 316 317 316 316 316 316 316 316 318 324 330 334 335 336 341 343 346 349 348 347 349 349 349
304 304 305 305 305 305 305 305 305 305 305 306 306 306 306 306 306 306 307 307 306 307 307 307 307 306 307 307 306 304 308 309 307 312 311 308 307 306 305 303 303 303 307 313 314 314 315 315 316 315 314 313 314 314 312 315 315 314 316 315 315 315 315 315 314 316 316 316 316 315 316 316 316 317 323 328 329 330 331 334 336 343 350 348 346 347 349 350
305 305 304 305 305 305 305 304 304 304 305 305 305 305 306 306 306 306 306 306 306 306 306 306 307 306 307 307 304 306 309 307 308 315 311 307 306 306 308 306 303 304 308 311 313 314 315 315 315 314 314 313 314 314 312 314 315 316 316 314 315 315 314 314 315 315 315 316 315 316 316 315 316 317 324 329 325 325 327 329 333 342 348 348 346 347 348 350
304 305 304 304 304 304 304 303 303 303 304 305 305 305 305 306 306 305 306 306 306 306 306 306 306 306 306 305 304 308 309 303 309 313 310 306 304 304 306 307 305 306 309 310 312 314 315 314 314 314 313 312 314 313 312 314 315 315 316 315 316 315 314 315 316 315 316 316 315 316 315 314 316 315 322 326 322 326 330 330 335 343 348 348 347 347 346 347
304 304 304 304 304 303 302 303 304 304 304 305 305 305 305 306 306 305 306 306 306 306 306 306 306 306 306 304 305 309 306 303 308 310 309 305 303 304 304 306 307 307 309 309 312 313 313 314 313 313 312 311 313 313 312 314 314 313 314 315 315 315 315 315 316 315 315 315 315 316 314 314 316 315 320 322 323 332 335 334 339 345 349 348 346 346 345 345
303 304 304 304 304 304 303 303 304 305 304 304 305 305 305 305 305 305 305 305 306 306 306 306 306 306 305 305 307 307 303 305 305 305 306 304 306 308 306 310 310 309 309 309 312 313 313 314 313 313 312 311 313 313 313 314 314 312 312 315 315 314 315 315 315 315 315 315 316 315 314 315 315 315 317 321 329 337 338 338 343 346 347 346 345 345 345 346
303 304 304 304 304 303 304 303 303 304 305 304 304 305 305 305 305 305 304 304 305 305 305 305 306 306 305 307 307 304 303 305 304 305 307 308 313 314 311 314 313 309 309 310 311 313 313 313 312 312 312 311 312 313 314 314 313 313 312 314 314 314 314 315 315 315 315 315 315 314 314 315 314 314 316 323 334 340 341 342 345 347 346 345 345 345 345 345
303 303 303 303 304 303 303 303 303 304 304 304 304 304 305 305 305 305 305 305 305 305 305 305 305 305 306 308 305 303 304 305 307 311 312 313 317 318 315 315 312 309 309 311 311 312 312 312 312 312 311 312 312 312 314 314 313 314 313 313 314 314 315 315 314 315 315 315 315 314 315 315 314 314 316 325 337 341 343 344 346 347 347 345 345 345 345 347
303 302 303 303 303 303 303 303 303 303 304 304 304 304 304 304 304 304 304 304 304 305 305 305 305 305 307 307 305 304 304 307 311 314 314 316 318 318 317 314 310 309 310 311 312 312 312 312 313 312 311 311 312 312 314 314 314 315 314 314 314 314 315 315 315 315 315 315 315 314 315 315 314 315 321 331 340 343 342 344 345 345 345 345 345 344 344 347
303 302 302 303 302 302 303 303 303 304 304 304 304 304 304 304 304 304 304 304 304 304 304 305 304 305 307 307 305 304 306 310 312 311 312 316 318 316 316 314 311 310 312 313 312 312 312 312 313 311 310 311 311 312 314 314 314 315 314 314 314 314 314 314 314 315 315 315 315 314 314 314 314 318 329 338 341 342 341 342 344 343 343 344 345 343 343 346
303 302 302 302 302 302 303 303 303 304 303 303 304 304 303 303 304 304 304 304 304 304 304 304 305 305 305 306 306 305 304 307 308 308 308 311 314 315 314 314 312 310 311 312 312 312 312 312 312 310 311 313 312 312 313 313 313 314 313 313 314 313 313 314 314 315 315 314 314 314 311 313 316 317 324 335 341 341 340 340 341 343 342 343 344 342 342 345
302 302 302 302 302 303 303 303 303 303 303 303 304 304 303 303 303 303 304 304 304 304 304 304 304 305 305 306 307 305 302 303 305 304 304 306 307 310 313 313 312 311 312 312 312 312 313 313 311 311 312 314 313 312 313 313 313 312 312 312 313 311 310 314 315 314 315 314 314 314 310 312 319 320 320 330 340 340 336 338 340 343 343 342 343 341 342 344
302 302 302 302 302 303 303 303 303 303 303 303 303 303 303 302 302 303 303 304 304 304 304 304 304 306 306 306 307 305 303 304 305 303 303 304 305 306 311 313 312 311 312 312 313 312 312 312 311 312 312 314 314 312 312 314 313 312 311 309 311 310 311 314 314 314 315 314 314 314 311 314 322 325 323 328 338 339 335 337 341 344 344 343 342 342 342 343
302 302 302 302 303 303 303 303 303 303 303 302 302 302 302 302 302 302 303 303 303 303 303 305 306 306 306 306 306 306 307 308 306 304 304 304 304 306 312 313 312 312 312 312 313 312 312 312 312 312 313 314 314 312 311 312 312 313 311 308 309 310 310 312 313 314 315 314 315 314 313 317 323 327 327 329 336 337 335 338 341 343 344 343 342 342 342 343
302 301 301 302 303 303 303 303 302 302 302 302 301 301 300 301 301 301 302 303 303 303 304 306 306 306 307 305 305 305 307 309 307 307 307 304 304 308 313 314 313 313 313 313 313 313 312 313 313 313 314 314 313 313 311 309 310 311 311 310 310 310 310 310 312 314 314 314 315 314 316 322 325 328 329 332 335 334 335 339 341 341 342 342 340 341 342 342
301 301 301 302 303 302 302 302 302 302 302 301 301 301 300 301 303 303 304 303 304 304 305 307 306 307 308 306 305 306 306 308 308 308 308 306 304 308 313 314 314 314 314 313 312 312 312 312 314 313 314 314 314 314 311 309 310 310 310 311 310 310 311 310 311 314 314 314 315 315 318 324 327 328 329 332 335 334 335 339 340 340 342 341 340 340 340 341
301 301 301 302 302 302 302 302 302 301 301 301 301 302 302 303 304 304 304 304 305 306 306 307 306 306 306 306 306 307 307 307 307 308 309 307 306 308 312 314 314 313 314 313 311 312 311 312 314 312 312 314 315 314 312 312 313 312 311 311 310 309 311 312 313 314 314 314 315 314 319 327 329 329 331 331 334 336 337 339 340 340 340 340 340 340 340 340
301 301 301 302 302 302 302 302 301 301 301 301 302 302 303 305 306 305 304 304 305 306 305 306 306 304 303 307 307 307 306 306 307 308 309 308 308 310 312 313 314 313 313 312 311 312 311 312 313 312 312 313 314 314 314 314 314 314 312 311 310 309 310 313 314 314 315 316 317 318 323 329 331 331 332 331 332 335 337 339 339 338 338 339 340 341 341 341
301 301 302 302 302 301 301 301 301 301 301 302 302 302 303 304 306 306 305 304 305 306 305 305 307 305 304 306 308 307 306 306 308 309 310 309 309 310 311 313 313 313 312 311 312 312 311 312 312 312 314 314 314 315 315 315 314 313 312 310 310 310 311 313 315 314 315 317 320 322 325 330 331 331 331 331 332 334 335 337 338 338 336 337 340 341 341 341
301 301 302 301 301 301 301 301 301 301 301 301 302 302 302 303 304 305 306 306 306 307 305 304 304 304 305 305 307 306 305 305 306 308 311 309 308 310 311 313 314 313 312 311 312 312 311 311 311 312 313 314 314 316 316 315 314 313 312 310 309 310 312 313 315 315 314 317 319 322 326 330 331 331 331 331 332 333 333 334 334 335 335 336 338 339 340 340
301 301 301 301 301 301 301 301 301 301 300 301 302 302 302 303 303 304 306 306 307 307 306 304 303 303 303 303 305 305 303 304 305 308 311 309 308 310 312 313 314 314 312 311 312 312 310 310 311 312 314 315 315 315 316 315 314 313 312 309 308 311 312 310 313 316 317 318 320 322 326 330 331 330 330 331 331 332 331 331 332 334 335 335 336 337 337 338
300 300 301 301 301 301 301 300 300 301 301 301 302 302 302 303 304 305 306 307 308 308 308 307 306 304 304 304 305 304 302 303 305 308 311 309 308 311 313 313 314 313 312 312 312 311 310 310 312 314 315 316 315 314 315 314 312 313 313 310 310 311 312 311 314 317 319 321 323 322 321 326 331 331 331 331 331 332 331 331 332 333 334 334 335 336 336 335
299 300 301 301 301 301 300 299 300 301 302 302 302 302 302 303 304 304 307 309 309 309 309 308 308 307 307 307 306 305 303 303 304 308 311 309 309 312 313 313 313 312 312 311 312 311 311 311 314 314 314 313 313 314 314 314 312 312 314 313 312 313 313 315 316 316 317 319 323 321 315 320 330 331 332 331 331 332 331 331 333 334 334 334 336 336 335 334
299 299 301 301 301 300 299 300 301 301 302 302 303 304 304 304 304 304 307 309 308 309 309 308 308 308 308 308 306 305 304 304 304 307 311 310 310 313 314 313 313 312 311 311 311 311 312 314 314 314 313 312 313 313 314 314 312 311 313 314 314 314 313 315 316 315 313 315 322 321 314 318 328 330 332 332 331 332 331 331 332 333 333 333 334 335 334 335
299 299 300 300 300 299 299 301 302 301 302 303 304 304 304 304 303 304 308 309 308 308 308 307 307 307 308 308 307 305 305 305 305 307 310 310 312 313 314 314 313 312 311 311 311 312 313 314 313 313 313 313 313 312 313 314 311 311 313 314 313 313 313 315 315 314 314 316 319 320 315 317 323 329 332 331 331 332 330 331 332 332 333 334 333 333 332 332
299 299 300 300 300 299 299 301 301 301 301 303 303 303 303 303 303 306 309 309 309 309 308 307 307 307 308 308 306 305 306 307 306 306 310 311 312 313 314 314 313 313 311 310 311 312 314 314 313 313 313 312 312 313 314 314 313 313 314 313 313 313 313 314 314 313 314 316 313 315 316 315 320 328 331 331 332 331 331 332 333 332 332 332 332 331 330 329
299 299 299 300 300 299 300 300 301 301 301 302 302 303 303 303 305 307 309 309 310 310 307 308 307 307 308 308 306 305 307 309 307 307 310 311 311 313 313 313 313 313 311 310 311 313 314 314 313 313 313 312 312 313 314 313 314 313 313 313 313 313 313 314 314 312 313 314 311 312 313 313 320 327 328 330 331 331 332 332 331 331 330 329 329 328 328 327
299 299 299 300 299 299 300 300 300 300 301 301 302 302 303 304 307 308 308 309 311 310 306 307 307 307 308 308 306 305 307 309 309 309 310 310 311 312 313 313 313 313 312 311 312 313 314 314 314 314 313 313 313 313 313 314 314 313 312 313 312 312 313 314 314 313 312 313 311 311 313 314 319 324 327 330 330 331 332 331 330 330 328 327 326 325 325 324
298 298 299 299 299 300 300 301 301 301 301 301 302 302 305 308 309 308 309 308 310 311 308 307 307 308 308 308 306 305 306 310 310 310 310 310 311 311 312 313 313 313 312 311 311 313 314 314 314 313 313 314 314 313 313 313 313 313 313 312 311 311 312 312 313 313 313 312 312 312 315 314 316 324 330 330 330 331 331 331 330 329 327 325 324 323 322 322
298 298 298 298 299 300 300 300 302 302 301 302 302 304 307 309 309 308 309 309 310 312 310 309 308 308 309 308 306 305 307 310 310 310 310 310 311 312 312 313 313 313 313 312 311 313 314 313 314 314 313 314 314 312 312 312 313 313 312 311 310 310 311 312 312 313 312 313 313 315 315 315 319 327 330 330 330 331 330 329 328 327 325 324 322 321 320 319
298 298 298 299 299 300 300 300 301 301 301 302 302 305 308 309 308 309 307 308 312 312 311 311 310 309 309 307 305 305 308 310 310 310 310 310 312 312 311 312 312 313 313 312 312 313 314 313 313 313 313 314 314 312 311 311 312 312 311 310 310 311 313 313 312 313 314 314 316 316 314 319 327 330 330 332 331 329 328 327 326 324 323 322 321 319 319 318
298 299 299 299 300 300 300 300 300 300 301 301 303 307 309 308 309 309 306 309 313 312 311 312 312 310 310 307 306 306 308 310 310 310 310 310 312 312 312 312 312 313 314 313 312 313 313 313 313 313 313 313 314 313 313 313 312 312 312 311 310 310 312 313 312 311 313 315 316 317 317 322 329 331 331 330 328 327 326 324 323 323 322 321 320 319 318 317
298 299 299 300 300 300 300 300 300 300 301 302 305 308 309 308 308 308 309 311 313 313 311 312 312 311 310 308 307 307 308 311 311 310 310 310 312 312 312 312 312 313 314 313 313 312 312 312 313 313 313 313 313 313 313 313 311 313 313 311 310 311 311 312 314 315 314 315 318 322 325 327 330 331 330 329 327 326 324 323 322 321 321 321 319 318 317 316
298 299 300 300 301 301 301 301 301 301 301 303 307 309 308 307 307 309 310 312 313 312 311 311 312 311 310 307 307 308 309 310 311 310 310 310 311 312 312 312 313 313 313 314 314 313 312 312 312 313 313 313 313 313 313 312 312 312 311 310 312 313 314 312 315 319 315 315 322 326 330 332 331 331 330 329 328 326 324 323 322 321 321 320 319 317 316 316
299 300 301 302 302 303 303 301 301 301 301 304 308 309 307 306 306 308 310 311 312 312 312 312 311 311 310 307 307 309 310 310 310 310 311 311 311 312 312 312 312 312 313 314 314 314 313 312 313 312 312 313 313 313 313 312 312 312 310 312 313 314 316 312 313 316 313 316 324 325 328 332 331 331 331 329 329 327 325 324 322 321 321 319 317 316 316 316
300 301 302 304 304 305 303 302 302 301 302 306 308 308 307 306 306 308 309 310 310 310 312 313 312 310 310 309 308 309 310 311 310 310 311 311 311 312 312 312 312 312 313 313 314 314 313 311 312 313 312 313 313 313 313 312 312 312 311 313 313 312 314 312 312 314 312 317 325 324 326 330 326 328 332 331 329 327 325 324 323 322 320 318 317 316 315 315
301 302 304 305 305 305 303 302 302 302 304 307 307 308 307 306 306 307 308 308 309 309 311 312 312 311 310 309 310 310 311 311 310 310 311 310 311 312 311 312 312 312 313 312 313 313 313 313 312 312 313 312 312 313 312 311 312 313 312 312 313 312 312 312 312 313 311 316 324 325 325 325 323 327 332 331 328 326 325 324 322 321 319 317 316 315 314 314
302 304 306 305 305 305 303 302 303 304 305 306 306 306 306 306 306 306 307 308 309 310 312 311 311 311 311 310 310 311 312 312 311 311 311 311 312 312 311 312 312 312 313 312 313 313 313 314 313 312 313 312 312 313 312 312 312 311 311 310 312 312 313 313 313 312 311 313 320 324 323 322 324 328 330 329 327 325 324 323 321 318 317 315 314 313 313 313
302 305 307 305 304 304 303 303 304 303 304 305 305 305 305 306 306 305 306 307 308 309 309 309 310 311 311 311 311 311 312 313 312 312 311 311 313 312 310 311 312 312 313 312 313 313 312 314 314 313 312 311 312 314 315 315 312 312 312 310 311 312 312 313 313 313 313 312 315 319 320 325 329 329 329 329 327 325 324 322 319 318 316 314 313 313 313 312
303 307 307 304 303 303 303 303 303 303 304 304 305 305 305 306 305 304 305 306 306 306 306 308 309 311 311 311 311 310 311 312 312 313 312 311 313 313 312 313 313 311 313 312 312 314 316 315 313 312 313 313 315 317 317 316 314 313 313 311 312 313 311 311 312 313 313 313 315 314 316 327 329 328 329 329 326 325 323 321 319 317 315 313 312 312 312 311
305 307 306 304 303 304 305 304 302 304 305 305 305 304 304 305 304 303 304 305 305 306 308 309 310 311 311 310 310 310 311 313 313 313 313 313 316 317 315 314 315 312 312 312 311 315 318 316 313 312 314 315 316 316 315 315 315 314 313 314 313 312 313 312 312 315 313 313 315 311 315 328 327 325 327 325 323 323 321 319 317 315 313 312 311 311 311 310
304 306 305 304 303 305 306 304 303 305 305 306 306 304 304 304 303 304 304 304 306 309 310 310 309 310 310 309 309 310 312 315 315 314 313 315 318 319 317 317 315 311 311 314 313 314 316 316 314 313 315 317 316 316 315 314 315 315 317 319 317 315 315 315 315 315 313 313 313 309 317 328 325 322 322 320 320 319 318 317 316 314 312 311 310 310 310 310
304 306 305 304 304 305 307 306 306 305 305 307 307 304 304 303 303 303 303 303 306 309 310 310 309 309 309 310 311 311 312 314 315 315 315 316 319 320 319 319 316 312 315 318 316 313 317 320 319 315 315 316 317 317 317 315 315 318 319 319 319 318 316 315 314 312 313 317 314 310 322 328 323 320 320 318 317 316 315 314 313 312 311 310 309 309 308 308
304 306 305 304 305 306 306 307 308 307 306 307 306 304 303 303 303 303 303 304 305 307 309 309 308 309 310 312 312 312 312 313 315 316 315 316 320 321 320 319 317 317 321 322 320 317 320 323 324 321 318 317 318 320 321 318 316 318 319 319 319 322 321 318 313 310 314 317 314 315 327 327 323 320 319 317 315 314 313 313 311 311 310 309 308 308 308 307
304 306 304 304 305 305 306 307 308 308 308 307 305 306 305 303 304 306 306 307 307 307 309 309 309 311 313 313 313 314 312 311 314 317 317 319 322 322 321 319 319 321 321 320 319 319 319 321 324 324 322 320 320 321 321 320 318 319 320 320 319 321 323 320 315 315 316 313 315 324 329 326 324 320 317 316 315 313 312 312 311 310 309 308 308 307 307 307
305 306 306 306 306 306 305 306 307 309 310 308 308 310 310 307 308 310 310 309 308 308 311 311 311 312 314 313 314 315 313 313 318 321 320 321 323 322 321 320 319 320 318 316 319 320 319 320 323 324 322 321 321 320 320 322 322 322 323 323 322 323 324 323 323 326 321 314 319 329 329 326 323 319 316 315 313 311 311 310 309 308 307 307 307 307 307 307
304 306 306 307 308 308 307 307 308 309 310 311 311 313 313 312 312 312 310 310 310 309 311 313 313 313 314 313 314 317 316 317 321 323 322 323 323 322 321 320 318 318 316 317 320 322 321 321 322 323 322 321 321 320 320 321 321 321 322 322 323 324 325 326 327 328 327 325 328 329 327 323 320 316 314 312 310 309 309 308 308 307 307 307 306 306 306 306
304 305 306 307 308 309 309 309 310 310 311 312 313 313 314 314 313 312 310 310 312 312 312 314 315 314 315 314 315 318 318 320 323 323 323 324 323 322 321 320 318 317 317 319 321 322 321 320 321 323 322 321 321 321 321 321 321 321 320 321 322 323 324 325 326 327 328 329 327 324 321 317 313 311 310 309 308 308 307 307 307 306 306 306 306 305 305 305
303 304 305 307 309 309 310 310 311 311 311 312 314 314 314 312 311 312 311 309 311 313 314 314 316 316 316 317 317 317 317 319 321 321 321 322 320 320 320 319 319 318 319 321 321 321 320 319 321 323 322 322 322 321 322 321 321 321 320 320 322 323 323 323 323 324 326 326 323 321 320 315 310 308 308 308 308 307 307 307 306 306 305 305 305 305 305 304
303 304 305 307 310 310 310 310 311 312 312 313 314 314 313 311 310 310 311 310 309 311 312 313 316 318 319 319 317 316 316 317 317 317 317 318 318 318 318 318 319 319 320 322 322 321 320 319 321 322 323 322 321 321 323 322 321 322 320 318 319 321 320 320 320 322 323 323 322 321 318 312 308 308 307 307 307 306 306 306 305 305 304 304 304 304 303 303
Wind_Speed
11 11 12 11 11 11 11 11 11 11 11 11 11 12 10 11 12 12 12 12 12 12 13 12 12 13 13 14 14 16 16 15 15 13 16 15 9 12 11 3 5 10 9 10 14 16 16 14 13 12 10 7 6 5 8 6 5 5 5 6 5 6 4 3 5 2 2 4 6 7 8 8 3 3 2 3 5 8 9 8 8 7 7 8 10 16 20 19
11 11 11 11 11 11 11 11 11 11 11 10 10 12 11 10 11 11 12 12 12 12 13 13 12 13 13 14 15 15 16 15 15 17 21 19 14 15 15 10 7 9 11 13 16 16 15 14 14 13 9 6 5 5 8 7 7 7 5 6 6 5 2 1 0 2 2 4 6 6 7 8 4 3 1 4 7 9 8 8 7 7 8 7 12 16 18 18
12 12 11 11 11 11 12 12 12 12 12 10 10 12 12 11 11 11 12 12 12 12 12 12 12 13 13 14 14 13 14 14 13 14 13 9 9 14 17 17 14 11 12 13 14 14 12 13 15 13 9 6 6 6 8 7 7 8 6 6 6 5 2 1 2 2 3 6 6 6 7 5 4 4 4 3 8 7 6 7 6 7 8 9 12 15 17 17
12 11 11 11 11 12 12 12 12 12 13 12 11 10 12 11 11 11 11 11 12 11 12 12 12 12 13 14 13 11 11 12 9 4 3 5 4 2 10 18 19 15 13 11 11 12 10 12 15 12 8 7 6 7 8 8 7 6 7 7 4 2 4 3 3 3 2 5 6 7 7 4 4 4 3 4 8 6 5 6 5 7 10 12 13 14 16 15
11 11 11 11 12 12 13 14 14 14 13 13 12 11 12 11 11 12 11 11 11 11 12 12 12 12 13 13 11 9 8 7 1 7 10 9 9 10 2 10 19 19 14 12 11 12 11 12 13 11 8 7 7 7 9 10 7 5 8 11 5 2 5 3 3 1 2 4 6 7 6 5 5 1 1 3 3 5 5 4 4 7 10 13 14 14 14 14
11 11 11 12 13 14 14 15 14 14 13 11 12 12 12 11 11 11 11 12 12 11 11 12 11 11 13 12 9 7 8 4 4 7 7 5 10 11 7 4 14 20 17 14 13 13 13 13 12 10 8 8 9 9 9 11 9 7 8 10 8 8 6 2 2 1 2 6 7 6 6 6 5 1 1 2 3 6 5 2 3 8 9 13 14 14 14 13
11 10 11 12 13 14 15 15 12 11 12 11 11 12 12 11 11 11 11 12 11 11 11 11 11 11 13 11 7 7 8 8 2 4 3 7 16 15 8 3 12 20 19 18 16 15 14 15 14 10 9 9 9 11 10 11 11 10 8 8 10 10 8 6 4 4 4 7 7 6 6 6 4 2 2 1 4 4 2 0 4 9 10 13 14 13 13 12
11 10 11 13 13 14 15 15 12 11 12 12 12 12 12 12 11 11 12 12 11 11 11 10 10 10 12 9 6 7 9 15 12 6 11 16 17 13 5 4 15 20 21 22 19 17 15 16 15 10 10 9 9 11 10 10 12 13 10 7 8 8 7 7 5 6 6 6 7 6 6 5 1 0 3 4 3 2 2 4 6 10 11 12 13 12 12 11
11 11 12 13 13 14 14 15 14 11 11 13 13 11 11 12 11 11 12 12 11 11 10 10 9 9 9 7 7 7 7 13 13 12 15 14 8 4 5 11 18 21 22 22 20 19 15 14 16 12 10 9 9 10 11 10 8 12 14 9 8 8 7 6 6 7 6 6 6 5 6 2 2 2 3 5 3 2 3 6 8 9 10 11 11 11 11 10
12 12 13 13 14 14 14 14 14 12 11 12 13 12 12 12 12 12 11 12 12 11 10 9 9 8 8 7 8 7 4 5 7 8 7 4 3 8 10 12 19 22 21 21 20 20 15 13 15 10 7 7 8 8 11 11 5 7 14 12 10 9 7 7 7 7 5 7 8 7 6 4 4 5 4 6 4 4 6 7 9 9 10 10 10 10 9 9
13 14 14 14 14 14 14 13 14 13 12 11 12 12 14 13 13 12 12 12 12 11 9 9 7 6 8 7 7 6 1 1 2 1 3 2 4 8 9 10 17 22 21 20 21 21 18 14 12 7 4 5 8 9 11 11 5 3 9 11 11 11 8 9 9 8 7 6 6 7 6 5 6 6 5 8 6 5 7 8 9 9 9 9 9 9 8 9
13 14 15 14 14 14 14 13 12 13 14 13 11 11 14 15 13 12 13 12 11 11 9 8 6 6 7 6 11 12 2 0 1 2 3 3 3 5 5 8 15 21 20 19 19 21 18 11 10 10 5 4 8 7 8 12 8 5 6 8 10 10 9 11 11 8 7 5 4 6 7 8 8 4 8 7 5 4 5 7 9 8 8 8 8 8 8 9
14 16 15 14 14 13 13 12 11 12 13 13 12 12 13 14 14 13 13 12 11 10 8 8 6 6 7 6 13 18 12 9 8 8 7 3 2 2 3 7 13 17 17 17 18 18 14 9 12 13 5 5 8 4 3 11 9 8 8 7 7 8 9 12 11 8 8 5 3 7 7 9 8 9 7 4 3 4 5 7 8 7 7 7 7 7 8 9
15 16 15 14 13 13 13 12 11 12 13 14 13 13 13 14 14 14 13 13 11 10 8 7 6 6 6 9 14 16 15 14 14 19 20 13 9 5 2 7 11 13 13 14 13 13 10 9 12 12 7 7 5 5 4 9 8 9 10 7 6 6 8 12 10 10 10 5 5 10 6 7 10 10 5 4 4 5 5 7 7 6 5 6 6 6 7 7
15 16 14 14 13 13 12 12 12 13 14 15 15 14 14 15 16 16 13 13 11 9 7 6 7 7 5 11 14 12 12 13 17 23 21 14 14 11 5 10 11 10 11 10 9 10 8 9 11 9 8 6 4 8 8 7 8 8 9 8 7 6 8 12 10 11 10 6 8 11 5 8 10 9 5 4 5 4 5 7 6 6 5 5 6 6 5 6
16 15 14 13 13 13 12 12 12 13 13 14 16 16 16 17 18 18 15 13 11 8 7 6 8 8 6 6 4 5 9 12 15 19 17 14 15 10 8 13 11 10 11 8 7 9 8 9 9 9 9 9 8 9 8 7 8 8 8 8 9 9 8 11 10 10 8 7 11 12 5 7 9 8 7 5 6 5 6 7 7 6 5 4 6 6 5 5
15 15 14 13 12 12 12 12 12 13 13 14 16 18 20 19 17 17 14 12 10 8 8 6 5 7 8 6 3 5 10 12 9 8 13 17 15 10 12 13 11 12 11 8 7 9 10 8 8 8 8 9 10 9 8 9 8 8 9 7 9 11 8 10 10 10 9 8 12 12 3 8 9 8 9 5 4 6 6 7 7 6 5 5 5 6 5 5
15 15 14 12 12 13 12 13 13 13 14 16 16 16 16 12 6 6 6 10 8 7 8 6 5 6 8 11 10 5 4 8 7 6 10 14 15 13 13 12 12 14 11 8 7 9 10 8 7 8 8 9 11 11 9 10 9 10 10 7 8 11 8 10 11 10 12 11 12 11 5 9 10 9 10 7 3 4 5 6 7 6 6 5 4 5 5 4
16 15 13 12 12 13 13 13 13 12 14 15 14 12 8 3 3 3 9 14 11 7 5 7 11 5 1 6 10 6 3 3 5 7 10 13 17 16 14 12 12 14 11 8 10 11 10 7 8 9 10 12 12 13 11 8 9 12 12 8 9 10 7 8 10 8 11 13 11 11 8 9 9 9 9 8 7 5 6 5 6 6 6 5 5 4 5 4
15 13 11 12 12 12 13 13 12 12 13 13 11 8 4 3 4 5 9 12 13 9 5 6 16 11 2 5 3 3 6 8 6 8 12 15 18 17 13 13 12 12 11 10 11 12 10 9 10 11 13 15 15 16 12 6 8 12 12 10 10 12 9 8 10 7 7 8 7 8 9 10 10 9 8 7 7 7 7 6 5 5 6 6 5 4 5 4
14 12 10 11 12 13 13 13 13 13 13 12 10 6 4 3 3 1 5 11 17 18 14 8 15 15 10 2 3 5 1 8 8 8 13 17 19 17 12 13 14 11 11 13 11 10 11 11 12 14 14 16 17 16 11 7 9 11 11 10 9 11 9 9 9 7 4 5 6 8 9 10 9 9 8 6 8 8 8 7 6 5 5 6 5 4 4 3
13 11 10 11 12 13 14 13 12 12 13 11 10 9 7 6 4 4 3 8 14 20 21 16 15 16 16 14 7 3 4 6 10 10 14 17 19 16 13 14 14 11 13 14 10 10 11 11 14 17 15 15 16 15 12 9 10 10 9 9 9 9 10 9 8 7 5 4 7 11 8 9 9 9 8 7 8 9 8 8 8 6 6 6 5 5 4 2
13 11 11 11 12 14 14 13 14 14 13 12 12 11 8 5 3 6 6 7 9 15 18 18 18 18 18 17 12 8 7 8 10 12 16 17 16 15 14 15 14 13 14 14 12 10 10 11 16 16 14 15 15 15 14 10 10 9 9 9 9 10 11 8 7 9 6 4 8 12 7 7 8 8 8 7 7 9 10 10 10 8 8 7 6 5 4 4
14 12 11 11 12 13 13 15 17 15 11 11 13 13 9 5 5 8 6 6 8 9 15 18 17 16 17 13 10 13 11 9 8 10 17 18 15 14 14 15 16 14 14 16 15 12 10 11 15 15 14 16 15 16 16 11 9 10 10 10 10 12 10 8 10 10 6 5 10 13 8 5 6 7 7 5 7 9 10 11 11 10 9 9 8 7 6 5
15 13 12 12 12 12 14 16 14 9 7 9 11 10 8 6 5 7 5 6 7 5 10 15 12 12 16 12 11 12 11 10 11 9 15 19 16 13 12 12 12 12 15 19 16 11 11 11 15 17 16 18 16 15 16 13 9 9 11 9 10 14 10 11 15 11 7 7 11 11 7 7 6 7 7 5 8 10 9 10 11 10 10 9 9 8 8 7
16 13 11 11 11 13 13 10 5 4 6 7 6 3 5 4 5 6 5 5 6 5 8 10 9 10 14 13 12 11 9 11 13 11 14 19 18 13 11 9 8 11 15 15 11 8 9 13 16 18 18 19 18 14 17 17 9 8 11 9 7 12 11 13 15 11 7 7 10 9 6 7 8 6 7 7 10 12 10 11 11 10 10 9 9 9 8 8
15 13 11 11 10 11 9 5 3 5 6 3 4 4 4 3 6 5 5 5 5 5 7 7 6 11 15 15 17 13 8 8 12 13 14 18 18 12 11 11 8 10 11 10 8 7 10 16 17 19 18 17 15 13 16 18 10 7 13 12 8 9 11 13 13 10 6 6 9 10 7 6 8 6 7 8 11 13 11 10 10 10 11 12 12 11 11 10
16 13 12 11 9 9 10 10 10 9 6 1 2 4 4 7 6 4 5 5 3 1 5 5 4 8 11 14 21 14 6 11 14 13 16 19 18 11 12 15 12 11 12 10 9 8 12 17 19 20 18 13 13 13 15 17 11 5 11 13 10 9 9 11 10 8 7 6 9 11 9 7 8 7 8 8 10 12 11 10 10 11 12 12 12 12 11 11
15 14 12 11 11 11 13 14 13 11 7 4 5 5 7 8 5 4 4 4 2 1 2 6 6 8 9 13 20 16 8 11 11 12 17 19 17 10 10 15 14 13 15 13 9 9 11 15 18 18 15 12 13 14 16 18 10 6 9 9 8 7 6 7 8 7 7 7 10 13 12 8 7 8 8 8 8 10 9 9 9 10 11 11 11 11 10 10
14 14 13 12 12 12 11 13 15 13 9 7 7 9 8 5 4 5 6 3 1 1 2 5 7 10 14 14 16 17 13 9 9 14 16 16 16 11 7 11 13 11 13 14 12 9 11 14 16 15 13 12 12 12 16 18 10 8 10 8 7 7 6 5 7 7 7 8 10 15 14 9 7 8 6 5 6 8 9 8 9 9 10 10 9 9 10 9
14 14 13 13 13 11 9 8 8 7 7 6 7 9 6 4 4 6 5 3 0 3 1 7 9 11 17 17 13 16 15 10 12 17 15 14 15 12 8 10 11 10 11 11 12 10 12 13 13 12 12 12 12 11 11 13 10 9 10 9 8 8 6 6 6 7 9 8 9 13 11 9 8 7 6 7 6 7 8 9 10 10 10 10 8 9 9 9
14 14 15 14 14 13 12 8 3 3 4 4 8 7 5 5 6 6 3 2 2 4 2 4 8 11 16 17 15 17 15 11 14 18 16 14 14 12 12 11 10 11 11 11 12 11 11 13 13 12 11 12 13 11 9 9 9 11 11 10 10 8 7 9 9 9 9 6 7 11 10 7 4 7 9 10 9 9 9 10 10 10 10 10 9 9 9 8
14 15 15 15 16 16 17 14 9 7 7 8 8 5 5 6 6 6 5 2 2 2 4 3 3 10 15 15 15 18 15 12 16 18 18 17 14 14 15 15 14 12 10 12 13 10 10 13 16 14 10 13 14 11 9 10 11 12 11 12 11 9 9 10 10 11 9 4 6 8 10 7 6 8 10 11 10 11 11 11 11 11 10 10 9 9 9 9
15 15 16 16 17 18 18 17 15 12 10 7 6 6 7 8 5 4 6 2 1 4 6 5 3 7 14 13 14 17 14 13 18 18 18 17 14 13 14 16 19 14 9 12 11 10 11 12 14 15 11 14 16 13 11 11 11 12 11 11 11 9 9 9 9 12 11 7 7 7 7 7 7 8 11 12 11 11 11 10 10 10 9 9 9 9 10 10
15 15 16 16 17 18 17 18 16 13 10 6 5 7 8 8 5 4 4 2 3 4 7 6 6 6 12 13 15 19 13 10 19 18 16 16 13 13 13 14 19 16 10 11 9 10 13 9 13 16 11 15 17 14 13 12 10 10 10 11 11 10 9 6 3 4 7 9 7 4 2 3 6 10 12 12 11 12 11 10 10 9 8 8 9 9 9 9
15 14 13 13 13 12 12 15 15 15 11 6 6 8 8 7 4 2 0 2 1 4 8 7 7 8 11 11 14 19 11 9 18 16 13 16 14 15 15 12 17 17 12 11 7 9 11 8 16 17 11 16 19 14 13 13 9 7 9 10 5 7 8 6 2 3 6 8 6 4 4 5 6 9 11 11 11 12 11 10 9 9 9 9 9 9 8 8
13 11 10 12 11 9 10 13 18 17 11 6 7 8 7 7 5 1 3 3 3 3 8 4 6 7 11 11 12 17 12 10 17 13 11 16 14 15 17 13 17 18 14 12 7 7 9 7 15 18 13 14 17 15 15 14 9 7 10 10 4 1 6 8 6 5 8 9 5 6 9 9 7 7 10 13 12 11 11 9 9 9 9 9 9 8 8 9
12 10 10 10 9 9 12 16 20 16 7 6 9 9 7 6 4 1 3 4 4 2 7 2 3 4 9 12 12 16 14 10 15 14 12 12 11 15 17 14 16 18 16 14 8 7 9 6 12 17 15 13 11 13 14 11 9 8 9 10 6 5 7 9 8 8 10 8 6 9 11 9 8 7 12 15 13 13 12 9 8 8 8 8 8 7 8 9
11 7 5 3 5 11 16 19 18 10 6 8 10 9 7 7 4 3 3 4 5 2 4 4 3 3 4 9 13 15 13 11 14 12 11 10 9 14 16 12 14 18 17 15 8 7 9 6 8 13 13 12 10 10 11 10 8 9 9 10 8 7 7 8 7 7 10 8 7 10 10 8 6 8 14 16 14 15 13 10 8 8 8 7 7 7 7 8
7 4 1 4 6 13 18 18 12 7 7 9 8 7 6 6 5 4 3 4 4 1 4 6 5 4 5 5 13 15 12 12 14 11 10 10 9 12 16 12 13 17 17 14 9 7 8 6 7 10 10 11 11 9 11 13 12 9 9 11 10 6 5 7 5 4 7 8 7 8 8 6 3 7 14 17 15 15 13 12 10 8 8 8 7 7 7 8
3 2 1 4 8 16 17 12 8 6 7 8 8 8 6 5 5 3 3 3 1 3 6 8 9 7 7 5 9 14 11 11 13 10 8 12 9 7 12 12 13 17 15 12 9 7 7 7 8 10 10 11 11 6 6 10 13 12 9 11 12 8 7 8 6 3 5 6 7 8 8 6 4 1 10 17 15 14 14 14 12 10 9 9 8 7 8 8
3 2 1 5 12 17 12 6 6 6 7 6 6 6 5 3 4 2 0 3 5 6 7 9 11 9 8 9 7 11 11 11 14 11 7 12 9 4 10 12 12 17 14 9 9 6 3 5 9 11 10 8 6 4 1 2 9 12 11 11 12 10 9 10 8 7 6 4 4 6 6 5 4 3 8 15 13 13 14 14 13 11 10 9 8 8 9 9
2 0 3 7 13 12 7 6 6 6 6 5 3 4 4 3 4 4 4 6 6 5 6 8 10 9 8 9 8 10 13 9 9 10 8 10 7 3 9 11 9 14 13 10 10 6 1 6 9 10 9 6 6 5 2 1 6 11 10 10 11 11 11 9 7 8 8 6 6 6 6 5 4 4 9 12 12 13 13 13 14 12 9 9 9 9 9 9
3 2 3 8 10 5 5 6 6 7 7 5 4 5 4 3 4 5 6 6 5 5 7 8 8 8 7 8 9 11 14 6 3 5 6 7 5 3 6 10 9 13 11 7 8 6 4 7 9 10 9 7 6 7 6 6 8 8 6 4 5 9 11 6 4 8 8 8 9 8 5 5 6 7 10 12 14 14 12 13 14 11 9 9 8 8 8 8
3 1 3 5 6 4 4 4 3 5 7 6 5 5 5 4 5 7 8 8 8 9 8 8 8 8 9 9 9 11 13 8 5 6 5 4 5 3 4 8 9 11 6 2 5 6 3 2 4 9 12 11 11 9 7 9 9 5 5 5 2 6 10 7 6 7 7 7 9 8 4 7 8 10 12 12 15 14 12 12 12 10 10 9 8 7 8 8
2 1 3 5 4 4 4 4 4 5 6 5 4 5 7 6 4 7 9 9 12 14 12 10 10 10 10 10 10 11 12 11 8 9 9 8 6 3 5 8 7 5 7 6 3 5 4 3 4 1 5 6 6 4 3 6 10 8 8 8 5 3 3 6 7 7 6 8 7 5 11 13 11 12 13 12 13 13 12 12 12 10 9 9 8 8 8 8
2 1 4 5 4 5 5 5 5 4 3 4 3 3 6 7 4 5 8 9 10 11 9 8 9 9 9 11 12 11 13 13 9 8 9 9 7 6 7 8 6 6 9 6 2 3 4 3 6 8 8 6 5 6 5 6 9 10 10 9 6 4 2 6 7 4 7 9 6 8 17 17 14 13 13 12 12 12 11 11 11 10 9 9 9 9 9 9
2 1 2 1 2 4 5 5 6 5 3 4 4 2 4 8 7 6 8 8 7 6 5 5 8 11 11 13 12 10 13 13 7 8 9 8 10 10 9 7 6 6 8 6 2 2 4 4 4 7 11 9 7 7 8 10 11 10 10 9 7 4 3 5 3 3 3 5 5 12 16 15 14 14 12 12 11 11 11 11 10 10 10 10 10 10 9 9
2 2 2 3 2 2 2 3 5 7 6 5 4 4 4 6 9 9 6 4 5 7 6 5 6 9 10 13 11 9 11 10 6 6 8 9 10 9 8 7 6 7 9 7 4 1 1 5 5 9 12 11 9 8 10 12 13 12 11 10 8 8 8 9 7 6 7 8 11 17 18 13 12 12 12 12 11 11 11 10 10 11 10 10 10 10 9 9
2 2 2 3 4 3 2 3 4 6 6 5 4 4 3 6 9 7 2 1 3 5 6 6 5 4 8 10 10 7 4 6 8 8 8 10 9 6 6 6 6 8 8 6 4 0 1 5 7 7 9 9 8 8 9 12 14 14 13 10 9 10 10 10 9 8 10 12 14 19 18 12 8 10 13 12 10 11 11 10 11 10 9 10 10 10 9 9
3 4 3 3 4 3 3 4 4 5 5 5 4 2 3 6 6 2 1 1 2 4 6 6 4 3 8 9 10 7 5 5 9 8 6 7 6 2 3 5 7 10 8 5 4 2 3 6 5 3 5 6 5 8 11 13 15 15 13 10 8 8 8 7 6 4 4 11 15 14 11 8 8 11 13 11 11 12 12 11 10 9 8 9 10 9 9 9
4 4 3 3 3 3 3 3 4 4 2 3 4 2 1 3 4 2 1 4 7 6 4 4 5 5 9 11 11 8 7 11 13 10 8 8 8 7 7 7 6 7 7 5 3 3 6 8 6 5 5 5 5 7 8 9 10 9 8 7 6 7 9 9 8 6 6 9 9 5 7 10 12 13 13 12 12 12 11 10 9 8 9 9 9 10 10 9
Wind_Direction
337 335 334 332 332 331 330 329 325 322 317 310 312 318 318 314 313 316 316 315 317 316 317 320 321 321 319 323 321 317 322 319 305 284 259 253 246 232 242 268 206 198 177 154 161 159 160 176 173 174 182 181 206 191 176 193 192 195 220 223 225 219 202 183 180 144 62 69 38 29 22 6 46 95 100 168 145 120 114 103 95 84 75 77 96 115 127 140
332 332 332 331 331 330 331 329 326 324 318 314 313 314 317 314 309 310 311 313 315 314 316 318 320 319 318 321 315 317 322 309 290 278 267 263 267 255 246 240 219 197 181 173 178 173 170 178 170 177 191 184 187 175 171 183 194 207 221 221 229 221 170 94 95 36 14 3 9 17 15 4 15 39 301 202 150 140 125 109 117 109 98 106 117 125 133 142
329 329 328 328 329 329 330 328 324 324 321 319 315 310 313 314 310 307 307 310 311 314 316 316 319 317 317 317 311 319 318 302 282 270 271 274 268 255 243 234 227 206 189 191 193 190 186 176 170 179 195 201 188 180 186 182 191 216 225 224 228 224 203 171 242 298 346 342 346 4 354 352 27 359 299 189 149 159 136 124 149 141 135 136 135 137 139 145
330 329 328 327 328 328 329 328 325 321 317 316 315 310 309 309 307 306 308 309 307 311 314 316 319 314 316 315 312 321 309 288 268 234 123 99 54 327 238 227 222 211 196 204 208 207 200 173 173 185 199 209 189 191 198 180 187 209 215 232 234 215 239 206 211 262 344 339 329 338 332 349 18 345 277 174 151 156 138 136 144 142 151 147 144 144 143 149
331 330 330 329 330 330 325 322 320 315 311 309 309 308 306 304 302 303 306 307 305 308 311 313 315 315 316 313 316 318 289 273 192 113 108 100 48 30 360 227 216 205 195 203 210 207 198 179 181 190 202 211 187 195 205 190 201 214 215 238 252 228 239 187 154 224 343 313 312 319 332 359 338 328 222 229 151 103 94 105 113 132 153 150 144 143 145 154
328 329 330 329 330 328 320 314 311 310 309 304 304 305 303 303 301 300 301 303 303 305 308 309 314 316 312 313 316 296 252 257 79 120 130 79 357 350 359 279 207 194 193 199 198 197 195 185 186 190 202 214 196 202 209 192 204 226 218 228 239 240 239 194 165 202 305 292 300 318 343 335 298 110 118 284 40 53 47 30 128 132 142 140 138 143 150 161
325 327 327 328 328 325 321 314 309 307 306 304 303 300 299 299 300 300 299 301 301 303 307 307 313 313 311 318 298 258 237 258 285 152 219 307 316 318 330 295 193 185 191 195 192 193 192 187 191 194 200 213 204 207 209 188 196 228 228 210 225 236 236 236 239 249 273 281 292 312 319 293 272 104 152 167 57 33 34 110 140 126 131 134 136 147 157 163
326 326 324 324 323 324 322 318 314 306 303 304 300 296 296 297 297 298 297 299 301 302 305 305 311 312 313 316 269 242 233 247 259 271 284 292 304 308 301 189 182 184 191 195 191 190 189 190 195 195 205 211 202 204 199 189 199 224 236 216 218 228 228 234 240 245 255 269 277 289 286 271 282 101 175 134 93 44 87 153 137 123 132 135 139 153 160 160
325 324 321 320 321 321 318 315 315 309 305 306 303 297 295 297 297 297 295 295 297 298 302 303 306 309 310 302 265 256 237 240 262 283 288 293 297 260 189 174 181 186 193 197 193 192 192 194 198 197 215 212 201 205 193 199 207 212 227 230 222 223 217 219 225 232 241 256 263 268 258 207 129 227 163 122 120 115 141 149 127 127 137 136 144 155 157 152
323 323 320 318 317 317 314 309 310 309 304 301 302 299 296 296 294 296 295 291 295 296 298 300 299 299 294 277 248 246 237 238 271 286 294 306 203 185 185 185 184 187 194 196 195 198 197 202 201 198 235 220 201 208 194 207 222 198 221 229 230 233 223 223 231 235 242 247 251 254 242 157 155 223 163 130 149 151 161 144 128 138 140 139 147 147 146 140
322 322 318 315 314 314 312 305 304 306 304 301 300 295 293 294 290 291 292 289 292 292 295 295 293 288 275 262 240 236 200 250 267 346 15 66 162 184 196 198 189 191 194 193 198 200 204 213 201 188 229 204 191 206 201 212 232 192 216 223 227 236 230 232 236 232 235 234 234 241 225 163 186 219 123 123 151 167 162 142 140 146 136 141 142 135 138 133
320 320 316 313 313 312 309 304 303 303 301 302 300 294 292 294 291 286 287 290 290 289 294 289 287 280 265 253 238 237 234 358 175 92 51 76 153 190 208 212 198 199 196 194 200 200 208 216 199 198 198 173 184 196 201 206 217 200 207 221 210 214 223 221 222 217 219 214 210 228 206 176 178 121 88 111 140 171 162 141 143 142 133 137 133 132 132 129
318 319 316 312 311 306 304 305 304 301 298 299 301 298 293 292 290 287 287 288 286 285 284 277 273 263 260 254 240 241 248 258 253 255 259 250 218 202 223 218 201 205 206 204 203 198 206 208 206 211 206 209 189 137 167 190 205 207 211 237 201 195 210 201 200 201 208 206 207 232 207 165 136 83 79 127 150 181 171 146 142 136 134 132 126 129 126 132
317 318 314 309 307 303 303 306 306 305 303 303 304 300 293 290 285 282 283 282 282 282 276 268 254 241 245 258 257 252 249 254 261 254 248 243 237 241 235 197 190 201 209 212 205 192 198 205 216 218 215 241 191 130 173 178 194 204 201 230 222 208 187 172 181 192 195 182 200 236 220 136 104 75 79 141 165 191 166 139 138 131 132 131 121 122 127 142
315 315 311 306 305 304 305 308 308 305 303 300 299 300 297 293 284 277 277 277 274 270 267 258 238 231 253 264 263 260 241 241 249 243 240 232 225 233 212 178 178 185 192 201 194 181 191 204 216 214 199 218 184 173 189 175 191 201 194 206 215 214 164 151 173 193 194 175 194 230 212 115 88 66 72 137 166 179 156 137 132 132 130 130 124 118 129 143
312 308 306 306 305 305 307 309 309 308 307 299 296 301 297 292 284 274 269 264 260 253 244 238 221 225 269 283 246 232 215 214 234 235 227 215 212 215 180 167 166 168 173 174 174 176 189 201 208 212 196 188 192 194 187 181 191 197 205 199 194 205 170 149 168 192 202 175 186 225 231 102 83 65 72 124 163 165 157 136 128 138 139 144 136 125 139 152
307 304 304 306 305 307 308 309 310 311 311 304 300 302 296 291 285 275 263 243 238 222 216 230 209 216 259 280 227 223 215 206 219 221 208 207 208 192 165 164 165 164 162 153 161 176 184 196 199 206 207 194 198 200 192 194 189 188 207 203 185 197 182 153 157 174 195 190 187 211 226 86 86 75 74 90 157 171 157 133 134 148 149 155 144 134 144 155
304 303 303 304 305 308 307 308 309 310 311 306 307 310 306 304 295 268 210 187 187 187 212 232 209 215 245 244 232 218 192 191 193 192 191 192 195 186 170 169 168 163 163 161 171 182 181 189 193 195 202 199 197 198 201 199 188 184 194 194 181 191 192 165 155 161 184 195 189 184 140 96 90 74 67 59 80 139 130 127 143 147 147 153 145 139 138 153
303 301 302 304 304 304 305 305 305 308 310 308 315 323 320 353 102 145 160 167 168 170 209 201 191 213 345 205 217 228 217 179 184 194 180 172 180 182 174 170 166 167 173 172 178 186 182 183 197 200 197 196 195 197 206 203 187 182 185 189 178 181 191 161 138 144 180 190 185 175 142 103 85 70 64 55 60 81 90 108 137 143 148 149 145 140 138 162
302 299 302 304 302 305 305 305 305 305 304 304 315 314 274 197 186 178 166 187 206 219 265 192 194 227 304 112 138 268 228 206 214 198 175 170 169 170 171 166 166 176 184 176 174 181 185 192 200 202 197 192 193 198 204 200 179 177 183 191 181 178 179 153 129 124 178 183 163 155 128 97 82 75 67 67 73 72 78 89 105 129 143 138 135 138 142 155
304 299 302 304 304 306 303 303 304 301 299 298 298 278 254 269 261 200 176 213 228 239 263 240 206 235 259 233 58 20 256 205 210 190 173 172 168 166 170 171 173 182 191 181 165 168 190 206 203 199 199 189 189 195 192 183 181 182 189 187 181 182 168 146 135 125 168 178 142 142 123 93 84 83 73 74 80 71 73 80 80 95 118 116 105 107 128 146
305 301 304 305 306 304 302 302 299 295 294 286 270 252 266 298 327 358 308 248 235 230 241 243 230 244 254 250 255 315 311 230 202 184 169 174 179 176 170 178 184 181 186 183 165 171 196 212 202 197 198 187 184 190 181 179 187 189 193 188 184 175 143 125 125 134 170 187 156 155 133 95 86 83 77 73 80 81 80 79 74 77 94 101 85 77 85 115
306 308 307 307 309 307 305 303 298 294 285 267 255 246 257 287 331 332 297 275 265 227 221 229 230 235 239 243 238 225 250 239 206 180 168 178 189 183 173 181 188 181 181 185 182 184 195 207 199 190 188 180 177 185 185 183 191 195 193 191 185 168 155 149 138 139 164 188 162 157 141 112 106 94 83 78 92 98 95 90 82 79 85 93 94 81 65 74
305 308 307 308 309 307 307 302 295 289 273 255 254 247 247 269 315 315 283 261 274 232 211 216 219 228 231 228 204 200 224 235 220 180 168 183 188 179 181 183 187 186 183 190 194 196 201 198 185 176 178 180 177 183 190 189 191 195 197 197 183 173 173 153 138 140 148 167 166 159 150 140 130 114 102 100 109 104 100 101 90 85 87 89 95 90 78 76
302 303 306 310 309 310 311 302 290 276 262 255 256 249 241 248 296 309 283 258 260 216 203 207 210 227 221 203 179 191 216 225 228 195 171 189 189 175 185 186 191 191 184 191 198 205 205 182 171 177 184 187 184 185 192 193 189 188 201 212 184 173 163 129 139 152 153 167 179 180 180 166 142 118 121 127 117 102 96 100 89 83 86 83 82 79 79 83
299 299 304 308 308 315 312 301 287 266 268 255 239 212 199 229 302 296 267 264 250 185 166 181 187 191 187 183 177 186 214 216 217 202 178 194 195 183 185 181 196 199 184 186 199 214 193 165 174 186 185 187 189 189 191 193 197 186 191 208 189 172 159 143 156 171 174 171 179 201 222 172 154 130 128 132 116 105 98 97 90 83 80 77 76 71 69 72
296 294 301 305 307 313 304 297 320 288 274 233 179 176 197 274 311 280 243 254 242 176 148 159 173 170 171 176 173 183 210 180 184 194 186 193 196 196 195 179 187 199 178 177 202 209 177 169 182 187 184 189 192 191 188 193 207 182 173 188 193 175 163 162 176 189 184 151 163 204 239 185 166 145 133 136 117 108 104 98 92 84 78 75 75 73 67 64
296 293 297 301 302 297 280 283 291 275 269 272 183 218 266 301 294 243 237 245 234 167 159 156 149 166 174 173 173 188 192 147 165 184 180 189 192 197 201 186 184 183 174 186 197 174 170 179 184 185 187 191 195 190 180 192 208 152 158 186 194 189 180 176 188 196 182 167 177 201 220 195 164 145 145 147 123 112 111 100 86 77 74 72 71 71 70 67
299 299 298 301 301 289 272 268 267 262 264 255 244 270 296 294 263 218 245 247 214 359 160 151 150 168 170 168 180 197 190 166 177 168 166 185 194 206 212 190 185 178 178 200 201 160 172 188 184 187 194 192 195 188 174 191 201 122 144 180 188 198 195 187 201 193 175 198 199 189 200 205 162 149 162 158 132 122 118 105 90 80 75 70 64 62 63 63
294 297 299 300 295 287 275 261 256 259 257 242 262 292 290 264 220 212 235 235 167 49 102 152 165 170 166 167 184 198 197 187 167 153 163 179 186 206 217 187 188 182 178 203 213 177 167 186 188 193 201 195 189 177 174 190 185 137 158 177 181 196 194 196 214 194 181 211 202 180 194 215 179 158 156 144 134 130 130 119 105 94 83 73 63 60 61 60
287 288 290 287 281 279 278 269 260 246 224 237 284 288 261 212 217 233 216 164 247 327 92 164 165 164 172 173 177 192 196 179 152 158 167 171 177 189 187 179 189 183 175 197 210 182 165 183 191 194 206 198 176 162 172 185 177 170 181 182 183 187 186 191 198 197 202 209 184 168 189 219 197 163 137 138 136 123 128 125 112 100 87 77 67 64 63 60
286 285 283 279 275 268 258 254 249 173 192 288 299 271 219 199 222 238 212 145 238 294 356 160 164 167 183 183 173 182 189 174 165 168 168 170 178 184 183 182 183 181 180 187 189 179 178 188 185 186 203 202 180 167 173 180 187 196 189 182 187 180 183 196 192 197 208 194 156 160 187 210 160 121 128 142 131 109 110 111 106 99 88 80 71 65 62 57
290 290 285 276 268 259 249 246 243 240 265 299 289 241 210 220 216 219 230 210 208 289 334 328 192 175 188 191 175 179 184 172 172 173 169 175 179 181 189 188 185 189 184 181 182 178 183 188 186 186 192 202 199 187 179 182 191 200 191 185 190 182 182 195 191 194 198 157 130 163 188 183 133 119 125 125 116 110 107 98 95 92 86 82 74 68 63 56
296 293 286 276 265 255 248 244 241 242 256 275 260 218 212 225 221 223 231 199 45 285 280 298 288 194 194 196 176 177 185 173 173 174 172 179 181 181 188 186 187 194 183 180 187 183 186 187 188 192 186 190 204 203 186 182 189 199 200 194 197 194 186 192 196 197 192 155 129 163 189 177 156 131 115 115 115 112 105 96 94 90 88 88 78 69 63 57
302 292 284 275 264 255 245 236 231 225 224 236 234 212 210 217 222 234 228 100 39 294 278 277 272 219 192 193 179 177 188 178 174 178 176 181 187 182 184 183 185 192 186 180 183 185 195 192 179 191 193 182 197 207 190 185 189 196 208 205 204 205 189 177 211 196 170 151 134 153 160 104 124 118 114 125 124 112 104 101 100 92 91 91 77 66 61 57
301 293 282 269 259 250 232 219 208 199 200 214 215 208 213 221 230 245 110 68 62 299 295 265 227 203 179 181 178 174 185 188 178 181 179 182 189 184 182 181 184 192 190 180 177 182 194 182 163 177 194 189 196 200 190 195 191 179 205 205 200 219 192 157 107 84 147 166 150 154 139 108 129 135 137 147 133 122 119 107 102 98 95 90 74 64 61 60
301 297 283 267 254 229 203 190 181 181 195 220 217 215 220 226 240 302 82 99 111 307 298 243 184 200 181 174 178 173 177 184 179 182 182 183 189 185 183 181 183 193 195 188 188 189 194 171 158 173 184 185 195 195 189 205 202 181 199 188 135 235 194 177 173 158 183 187 163 175 167 152 169 159 152 161 147 140 141 120 110 105 93 84 74 67 64 62
302 295 279 267 243 202 179 172 170 176 199 223 223 229 234 229 225 152 113 112 95 349 302 262 180 226 187 174 175 174 176 179 179 183 183 183 185 183 184 180 180 191 196 195 192 191 203 179 160 182 183 165 182 193 188 203 216 214 200 178 168 186 183 192 196 184 194 187 156 176 173 171 190 166 159 169 159 153 154 138 125 108 92 86 79 73 66 62
292 281 270 240 193 178 168 167 171 184 213 216 220 226 232 239 220 148 120 109 91 37 296 284 275 285 231 189 171 171 181 179 178 183 181 180 177 181 186 180 178 188 193 197 191 180 207 207 165 182 179 161 173 196 191 185 200 220 202 181 196 206 187 192 198 197 201 187 161 173 178 190 196 163 166 169 156 155 155 142 130 108 96 95 87 80 69 61
284 276 227 125 153 162 160 167 180 202 213 213 224 222 221 240 220 162 111 98 98 177 268 291 287 301 308 215 172 175 186 178 179 187 182 176 162 173 189 183 177 187 190 194 193 176 199 215 170 163 166 171 180 196 198 184 181 200 198 186 190 196 186 185 191 223 216 195 175 179 186 183 143 143 164 160 152 157 153 140 134 116 108 103 90 88 77 65
284 269 150 123 148 156 157 173 197 205 210 217 231 230 226 241 222 168 82 81 144 234 257 286 285 284 302 273 181 173 178 177 185 191 177 176 173 174 189 187 181 183 186 195 197 185 198 204 171 159 174 189 183 178 197 192 186 188 194 194 189 186 186 178 175 204 216 204 185 186 185 150 75 82 162 155 155 157 147 138 134 122 116 108 94 90 78 68
259 239 108 129 156 162 169 194 198 199 218 219 227 232 222 223 230 225 354 237 243 250 257 273 275 271 277 274 229 181 178 180 184 187 176 176 182 172 171 179 187 182 180 195 190 169 200 207 175 168 177 174 138 96 25 212 194 193 199 198 188 188 198 193 183 181 192 199 177 194 197 139 50 3 144 146 149 145 141 137 130 121 115 109 101 90 79 75
236 259 72 136 162 178 204 211 191 206 224 218 227 234 210 202 225 226 225 233 240 247 249 257 262 259 249 255 250 196 177 172 175 182 183 171 154 115 152 163 183 185 183 195 183 152 163 202 180 171 167 132 95 101 130 195 200 199 198 194 190 190 198 206 194 174 182 193 180 197 203 148 89 74 115 125 126 128 134 132 125 121 116 109 104 92 85 83
275 300 88 147 173 213 238 207 195 209 211 209 223 221 215 231 229 224 229 228 222 232 246 250 252 256 244 243 244 200 173 156 143 171 186 174 133 90 156 161 181 193 188 185 176 165 189 194 180 173 167 153 148 159 172 190 201 199 178 172 193 185 183 190 181 176 190 197 195 206 194 139 125 120 117 119 121 121 123 123 119 119 117 111 105 97 91 86
270 284 97 163 198 246 249 235 248 224 205 204 221 221 224 229 218 228 243 242 234 237 249 260 266 276 268 246 230 201 170 142 140 161 164 165 144 121 160 168 191 198 174 134 176 172 168 186 192 189 182 179 179 175 173 180 183 177 148 140 143 178 181 177 171 189 196 184 201 219 159 118 128 129 126 125 123 120 119 117 113 113 115 112 106 100 93 86
263 169 128 171 204 245 251 259 274 249 212 200 214 226 225 223 223 234 242 246 243 238 244 264 272 276 265 232 204 188 166 147 154 166 159 158 157 131 147 165 184 162 102 77 132 151 122 51 26 122 171 172 163 135 112 163 166 158 148 143 127 125 180 191 195 203 181 169 199 190 133 135 148 143 136 133 126 125 126 119 113 114 114 108 104 100 94 90
282 201 163 170 191 220 228 232 242 250 219 193 204 229 216 214 232 236 226 231 236 233 242 261 260 259 241 203 184 174 170 166 163 157 148 144 134 111 128 151 144 117 114 108 119 156 144 98 47 55 74 79 80 80 86 133 145 142 138 135 126 104 160 195 195 174 156 172 188 139 134 145 158 151 142 137 131 127 125 119 117 117 113 109 107 101 97 92
262 242 191 213 218 203 202 213 220 219 203 199 217 259 212 207 225 230 221 223 211 197 218 242 246 251 230 190 173 163 166 167 153 140 139 133 133 127 128 135 124 134 151 142 136 185 138 103 74 84 85 74 66 78 92 100 101 104 110 116 117 103 127 154 128 58 154 182 157 136 136 141 147 146 137 132 129 123 117 116 117 114 111 111 107 100 96 90
275 273 266 284 280 233 202 198 205 206 208 213 225 238 220 220 232 234 235 231 187 183 219 253 254 240 214 185 170 158 159 158 139 137 142 137 143 147 138 131 132 158 164 137 111 195 93 98 119 110 91 74 66 76 92 103 101 91 85 89 97 91 85 94 83 68 85 92 104 120 118 111 123 130 121 118 119 115 114 115 113 110 109 110 106 100 95 87
271 296 310 279 267 258 229 211 208 204 202 210 221 216 214 236 244 244 264 256 185 172 200 243 260 195 171 168 156 132 123 146 149 156 156 143 147 160 148 138 143 154 157 138 122 114 24 136 148 122 89 74 71 81 96 103 100 90 78 71 84 89 79 80 83 77 82 94 107 114 109 99 106 114 111 113 114 112 115 115 110 108 110 111 108 103 98 88
290 289 302 282 264 243 215 208 208 203 192 198 215 187 183 226 245 277 18 74 84 107 157 219 271 100 112 108 102 82 43 85 119 126 135 132 129 131 119 128 149 154 147 132 132 133 117 139 177 187 111 90 86 103 109 107 99 88 73 59 65 83 79 74 71 48 89 123 126 123 122 126 129 121 116 116 116 114 114 111 107 108 113 112 108 105 99 91
333 296 297 289 267 233 220 206 194 202 182 177 215 247 199 228 251 299 43 89 77 83 139 253 318 41 79 75 69 62 65 85 91 89 87 85 86 90 85 86 114 141 141 131 123 128 131 140 180 197 131 114 137 133 125 132 125 97 62 42 48 86 98 87 76 70 99 131 136 131 130 132 133 129 121 117 116 112 107 108 108 112 113 108 105 105 99 92